Vorticity
nan nan nan nan nan nan nan nan nan nan nan nan nan nan nan nan nan nan nan nan nan nan nan nan nan nan nan nan nan nan nan nan nan nan nan nan nan nan nan nan nan nan nan nan nan nan nan nan nan nan nan nan nan nan nan nan nan nan nan nan nan nan nan nan nan nan nan nan nan nan nan nan nan nan nan nan nan nan nan nan nan nan nan nan nan nan
nan 9 8 10 12 11 8 7 9 9 8 7 8 8 8 7 7 7 6 7 7 8 8 7 7 7 6 2 0 4 12 21 25 22 14 8 6 6 5 5 5 6 6 6 7 7 7 7 6 6 6 7 7 8 8 9 10 11 14 17 19 21 21 18 14 9 7 6 5 5 4 4 4 5 6 6 7 7 7 7 7 7 7 7 7 nan
nan 9 9 9 10 11 9 8 8 9 8 7 8 8 8 8 8 8 7 7 7 7 7 7 7 7 8 5 2 2 6 12 19 25 21 13 9 6 5 4 5 5 6 6 6 6 6 6 6 6 6 7 7 8 8 8 9 10 12 15 18 20 20 18 14 11 8 6 6 5 5 5 6 6 6 7 7 6 7 7 7 7 7 7 7 nan
nan 8 8 9 9 10 9 8 8 8 8 8 9 9 8 8 8 8 8 8 7 7 7 7 8 9 9 7 4 3 4 7 13 21 25 21 14 9 6 4 5 6 6 6 6 6 6 6 6 6 6 7 8 8 8 8 8 9 11 13 15 16 15 13 12 9 8 6 6 6 6 6 7 7 6 6 6 6 7 7 7 7 7 7 7 nan
nan 9 9 9 9 9 9 9 9 9 10 10 9 9 9 8 8 8 8 8 8 9 8 8 8 9 9 7 4 3 5 7 10 14 23 26 20 14 8 6 6 7 6 6 6 5 6 6 6 6 7 8 8 9 9 9 9 9 10 12 13 13 12 10 9 8 7 7 7 7 7 7 7 7 6 6 6 6 6 6 6 6 7 7 7 nan
nan 10 10 10 9 9 9 10 11 11 11 10 10 9 8 8 9 9 9 9 9 10 10 9 9 9 8 6 4 5 8 10 11 12 20 25 23 18 11 8 8 8 7 6 6 6 6 6 6 7 7 8 9 9 10 10 10 10 10 10 11 11 11 10 9 9 9 9 9 9 9 8 7 8 7 6 6 6 6 6 6 6 6 6 7 nan
nan 10 10 10 10 10 10 10 11 11 11 10 10 9 8 7 8 9 9 9 10 10 10 10 10 9 7 5 6 9 12 14 15 15 19 23 24 22 15 10 9 9 8 7 6 6 6 7 7 7 8 9 9 10 10 11 11 11 10 10 10 10 10 10 10 11 11 11 12 12 11 10 10 10 9 9 9 8 7 7 6 6 6 6 6 nan
nan 9 9 10 10 10 10 10 11 11 10 10 9 8 8 8 8 8 8 9 10 10 11 11 11 10 8 6 8 11 14 15 16 18 21 25 27 24 18 13 10 9 8 7 7 7 7 7 7 8 8 9 10 10 11 11 11 11 11 10 10 9 9 9 10 10 11 11 11 11 11 11 11 11 11 11 11 11 11 10 8 7 6 6 6 nan
nan 8 9 10 9 9 9 9 10 11 11 10 9 8 8 8 8 8 8 7 8 9 10 11 11 10 8 7 8 9 11 13 15 18 22 27 27 25 20 14 11 8 8 8 7 7 7 7 7 8 8 9 10 10 10 10 11 11 11 11 10 9 9 8 8 8 8 8 8 7 8 8 7 8 8 9 10 11 11 11 10 9 8 7 6 nan
nan 8 9 9 9 9 9 8 8 9 11 12 10 9 8 8 8 8 7 6 6 8 9 9 9 9 9 8 7 8 9 10 11 17 24 29 28 22 16 13 12 12 11 9 8 8 8 8 8 8 9 9 9 9 8 9 10 11 11 11 10 9 8 8 7 7 6 5 5 5 5 5 5 5 5 5 6 7 8 9 9 9 8 7 7 nan
nan 10 10 9 9 10 11 9 8 8 10 10 9 9 9 10 9 9 8 7 7 7 8 9 9 9 9 7 7 7 9 10 10 12 18 22 21 17 13 13 14 15 12 9 8 8 8 9 9 8 8 8 7 7 7 8 9 11 11 11 10 10 9 8 8 7 6 5 5 5 4 4 3 3 3 3 3 4 5 5 6 6 7 7 7 nan
nan 10 10 10 9 10 10 9 8 9 10 9 7 7 9 11 11 11 11 10 9 8 8 9 10 10 9 7 7 7 9 10 9 9 10 9 9 11 11 12 12 11 8 6 6 7 8 8 8 7 7 7 6 6 7 8 9 10 10 10 10 10 9 9 8 7 6 6 5 5 5 4 4 4 3 3 3 3 3 4 4 5 6 6 7 nan
nan 9 9 10 9 9 9 8 8 9 10 10 9 9 9 10 11 12 13 11 10 9 9 9 10 10 10 9 8 8 8 9 9 9 8 7 7 8 9 10 10 9 7 6 6 9 9 6 5 5 7 6 7 7 7 8 9 9 8 8 8 9 8 8 8 7 6 5 5 5 4 4 4 4 4 4 4 4 4 4 4 5 6 6 7 nan
nan 9 9 9 9 9 10 9 9 9 10 11 11 11 10 9 10 11 11 9 8 9 9 9 10 10 9 9 10 10 9 9 10 10 9 8 8 9 10 10 11 10 9 8 9 10 9 6 5 6 6 5 5 5 6 7 7 7 6 6 6 6 6 6 6 6 5 5 5 4 4 4 4 4 5 5 5 5 5 5 5 5 6 6 7 nan
nan 9 9 9 9 9 10 11 11 11 10 11 10 10 10 10 10 10 9 8 8 9 10 10 11 11 10 9 10 11 11 11 10 10 9 8 8 9 12 12 12 11 10 9 8 9 8 8 8 9 7 6 6 6 6 6 6 5 4 4 4 4 4 4 4 4 4 4 4 4 4 4 4 5 5 5 5 5 5 5 5 6 6 7 7 nan
nan 10 9 9 9 9 10 10 11 11 10 10 10 10 10 9 10 10 10 10 9 9 9 10 12 12 11 9 8 9 12 12 11 10 9 8 7 8 12 14 13 11 10 8 7 7 7 11 12 12 11 11 10 8 6 5 5 4 3 3 3 3 3 3 4 4 4 4 4 4 5 5 5 5 5 5 4 4 4 5 5 6 6 7 7 nan
nan 9 9 9 9 9 10 10 11 10 10 9 9 10 10 10 10 10 10 10 10 9 9 9 10 10 9 7 6 7 11 12 11 9 9 7 7 8 11 14 13 11 9 8 8 8 9 10 11 11 14 14 10 6 6 6 5 4 3 3 3 3 3 3 4 4 5 5 5 5 5 5 5 5 4 4 4 4 4 4 4 5 6 7 7 nan
nan 9 9 9 10 10 10 10 10 10 10 9 9 9 9 10 10 10 10 10 10 9 9 9 9 8 8 7 5 5 9 12 11 10 9 7 7 8 10 12 12 11 9 7 7 7 9 10 11 12 18 17 9 5 5 5 5 5 4 4 4 4 4 4 4 5 5 5 5 5 5 5 5 5 4 4 4 3 3 4 4 5 5 6 7 nan
nan 10 10 10 10 10 10 10 10 10 10 10 9 9 8 9 10 10 10 10 10 10 9 8 8 9 9 8 6 5 8 11 11 11 9 7 7 7 9 11 11 11 9 7 5 6 8 9 11 13 18 18 13 9 6 5 5 5 5 5 5 5 5 5 5 5 5 5 5 5 5 5 5 5 5 4 4 4 3 4 4 4 5 6 7 nan
nan 10 10 10 10 10 9 9 9 10 12 13 11 10 8 9 9 10 10 10 10 10 10 9 8 8 9 8 6 6 9 12 13 13 10 8 7 7 9 12 11 10 8 6 6 7 8 9 9 10 14 18 17 15 10 7 6 6 6 6 6 6 6 5 5 5 5 5 5 5 5 5 5 5 5 5 5 4 4 4 4 5 5 6 6 nan
nan 10 10 11 11 10 9 7 7 9 13 14 12 10 9 9 9 9 10 10 10 10 10 10 10 9 9 8 7 6 9 12 13 12 10 9 8 7 10 12 12 10 8 7 7 8 9 9 9 7 10 15 16 17 15 12 9 8 6 7 7 7 7 6 5 5 5 5 5 5 5 5 5 5 5 5 6 6 5 5 5 5 5 6 6 nan
nan 10 9 10 11 11 9 7 6 8 12 13 10 9 9 9 9 10 10 11 11 11 11 11 10 10 9 9 8 8 9 11 11 11 10 9 8 7 9 11 12 11 8 8 8 9 9 9 9 7 8 9 11 14 15 15 13 10 8 8 7 7 7 6 6 5 5 5 5 5 5 5 5 5 6 6 6 6 6 6 6 6 6 6 6 nan
nan 11 9 9 9 10 9 8 7 9 11 12 11 10 10 11 11 11 12 12 12 12 12 12 11 10 9 9 9 9 10 10 10 10 10 9 9 7 8 11 12 11 9 9 9 10 10 9 9 8 10 9 9 10 11 13 13 13 12 10 9 8 8 7 6 6 5 5 4 4 5 5 5 6 6 6 6 6 7 7 7 7 7 6 7 nan
nan 10 9 9 9 9 9 9 10 10 11 12 11 11 12 12 13 14 14 13 12 11 11 10 9 9 10 11 10 10 10 11 11 11 10 10 9 8 8 11 12 11 9 9 10 10 10 10 10 9 11 12 11 9 9 9 10 11 12 12 12 12 10 8 7 6 6 5 5 4 5 5 6 6 6 6 7 7 7 7 8 8 7 7 7 nan
nan 11 11 12 13 12 12 12 13 13 12 10 10 10 11 12 12 11 11 12 11 11 10 8 8 8 10 10 10 10 10 11 12 12 11 10 9 9 9 11 12 11 9 7 9 10 11 10 10 10 12 14 14 12 9 8 8 8 9 11 13 13 12 10 8 7 6 5 5 5 5 6 6 7 7 7 7 7 7 8 8 8 8 8 8 nan
nan 14 15 15 15 14 14 15 16 15 13 10 9 9 10 9 9 8 8 8 9 10 9 7 8 8 9 9 9 10 10 10 11 11 11 11 10 9 9 10 11 10 9 8 9 10 10 10 10 11 12 15 16 16 12 10 9 8 8 9 11 12 13 12 10 7 6 5 5 5 6 6 7 7 7 7 7 7 7 8 8 9 9 9 10 nan
nan 15 15 14 13 12 12 14 14 15 14 12 11 10 9 9 8 8 7 8 9 10 9 8 8 8 8 9 9 9 10 9 10 11 10 10 10 9 9 9 10 10 11 11 11 11 9 9 10 10 10 12 15 18 17 13 12 11 10 9 10 10 12 11 10 8 6 6 6 6 6 7 7 7 8 8 8 7 8 8 9 9 10 12 14 nan
nan 11 11 11 11 11 11 11 11 12 12 13 13 13 12 11 10 9 8 9 10 11 10 9 9 9 9 9 10 10 10 10 10 11 10 10 10 9 9 9 10 11 12 12 12 11 11 10 10 10 9 9 12 16 19 19 18 17 16 15 13 12 12 11 10 9 8 7 6 6 7 7 7 8 8 8 8 8 8 8 9 10 12 13 13 nan
nan 7 7 7 7 7 8 9 11 11 11 11 12 14 16 15 12 11 10 11 11 10 10 10 10 10 9 10 11 11 11 11 11 12 12 10 10 9 10 10 11 11 11 11 11 10 11 11 10 10 8 8 11 13 17 19 22 22 23 23 21 19 16 14 13 11 10 9 8 8 8 8 8 8 8 8 8 8 8 7 9 12 15 13 10 nan
nan 4 3 2 3 5 6 8 9 11 11 11 11 12 14 15 14 13 12 11 11 10 10 10 10 10 9 9 10 11 11 11 12 13 12 10 9 9 10 10 10 10 11 11 10 10 10 11 10 10 9 9 10 11 12 15 17 18 20 23 23 23 20 18 17 15 13 12 11 10 9 9 9 9 9 8 8 8 8 8 8 10 13 10 7 nan
nan 5 4 2 3 5 7 8 7 8 8 8 7 8 11 14 14 13 13 12 11 11 11 10 10 10 9 9 9 9 9 10 11 12 12 10 10 11 11 10 9 10 10 11 11 10 10 10 9 10 10 10 11 11 11 11 11 12 13 15 16 16 17 18 18 18 18 16 15 13 12 11 10 10 9 9 9 9 8 7 6 6 8 8 6 nan
nan 8 7 6 6 8 9 9 8 8 7 6 6 7 9 11 12 13 13 12 11 11 11 11 11 11 11 10 9 8 8 9 10 10 10 10 10 11 11 10 9 9 10 12 13 12 10 8 8 9 10 10 11 11 11 11 11 10 11 11 10 10 12 16 18 19 20 21 20 18 17 15 14 12 11 10 9 9 9 7 5 3 4 8 7 nan
nan 8 8 8 9 9 9 9 10 10 9 8 7 7 8 9 10 12 12 12 12 11 11 11 11 11 11 11 9 8 8 9 11 11 10 9 10 10 10 10 10 9 10 11 13 13 11 8 8 9 9 10 11 11 11 11 11 11 11 11 10 9 11 14 16 17 18 20 22 23 23 23 21 19 17 14 12 11 10 8 5 1 -2 5 9 nan
nan 8 8 8 9 9 8 9 10 10 10 9 9 9 9 9 9 10 11 12 12 12 12 11 10 10 9 9 9 8 8 10 11 13 12 10 10 10 10 10 9 9 10 10 10 12 12 10 9 9 10 10 11 11 10 10 10 11 11 11 10 9 10 12 13 13 13 15 17 19 21 23 24 26 25 21 18 15 12 10 8 4 -2 -1 5 nan
nan 8 8 8 8 8 8 8 9 9 9 9 9 9 9 9 9 9 9 10 11 12 13 12 11 10 8 8 8 9 10 10 10 12 12 11 10 10 10 10 10 10 10 10 9 10 10 10 10 10 10 10 11 11 11 10 9 10 11 12 11 10 10 10 11 11 11 12 12 12 13 15 18 20 23 21 19 17 14 12 10 9 5 0 -0 nan
nan 8 8 9 9 9 8 8 8 9 9 8 8 9 9 9 9 9 9 9 10 11 12 12 12 12 10 9 9 9 10 10 10 12 12 11 10 9 10 12 11 10 9 9 10 10 10 10 10 10 10 10 10 10 10 10 10 11 11 11 11 11 10 10 10 10 11 10 10 10 10 10 11 12 14 14 15 16 16 14 13 12 11 7 3 nan
nan 8 8 9 10 10 9 8 9 9 9 9 9 10 10 9 9 9 9 9 10 10 10 11 11 11 12 11 11 10 10 10 10 10 12 12 10 10 10 12 12 10 8 8 10 10 9 9 10 11 11 10 8 7 7 9 10 11 11 10 10 10 11 11 11 11 10 10 10 10 10 11 11 11 11 14 17 20 22 22 20 18 17 14 10 nan
nan 8 9 10 11 11 10 9 10 11 11 11 11 11 11 10 10 9 9 10 10 10 10 9 10 10 11 11 11 10 10 10 10 10 12 12 10 10 10 11 12 11 9 10 11 10 9 9 9 9 10 10 9 7 8 9 10 10 10 10 11 11 12 12 11 10 10 10 10 10 11 11 12 12 13 16 18 20 22 24 25 26 25 24 22 nan
nan 9 9 10 11 11 11 10 10 12 13 13 13 12 11 10 10 10 10 11 11 11 11 10 10 9 10 11 11 10 10 10 10 10 11 10 9 10 10 10 11 11 11 12 12 11 11 11 10 10 9 9 10 11 11 10 10 9 9 10 12 13 14 13 12 11 10 10 10 10 10 11 12 13 14 15 15 15 15 17 20 22 21 23 29 nan
nan 9 10 11 12 12 11 10 10 12 14 14 12 10 9 9 9 9 10 11 11 11 11 11 11 11 11 11 12 12 11 11 11 10 10 10 10 11 11 11 11 12 12 11 12 12 11 11 10 10 10 9 9 9 9 10 10 8 9 11 11 10 11 11 11 12 12 11 11 10 9 10 11 12 12 12 13 12 12 12 14 16 14 14 18 nan
nan 8 10 12 12 12 10 11 13 15 14 12 9 8 8 9 9 9 10 10 9 9 10 11 11 10 11 12 13 13 13 12 12 11 11 12 11 11 11 12 11 12 11 9 10 10 10 10 9 10 10 10 9 9 9 9 9 9 9 10 9 7 7 9 11 13 12 11 11 11 9 8 9 10 12 11 11 11 11 11 11 11 12 11 11 nan
nan 8 10 11 12 12 13 14 15 14 13 11 9 8 8 9 9 9 10 9 9 8 10 11 11 10 10 11 12 12 12 12 13 13 13 12 11 10 11 12 12 11 9 8 8 9 10 10 10 10 9 9 9 9 9 10 11 11 10 8 8 8 12 14 13 13 12 11 10 11 10 8 9 10 11 11 10 11 12 13 12 9 7 8 10 nan
nan 10 12 12 13 13 13 12 11 10 10 10 9 8 8 9 10 10 10 9 9 9 10 11 12 12 11 10 10 10 9 10 11 14 14 12 10 10 11 12 11 9 8 7 9 10 11 11 11 11 10 9 10 8 8 9 11 12 12 10 8 9 12 12 10 11 13 12 12 12 11 10 10 10 10 10 10 11 13 15 16 15 9 6 9 nan
nan 12 13 12 12 11 10 9 9 10 10 9 9 8 9 10 11 10 10 10 10 10 10 10 11 11 10 10 9 9 9 10 11 13 15 15 12 10 11 11 10 9 9 9 9 9 11 11 11 12 12 10 10 9 9 8 9 10 11 12 10 8 6 6 7 9 10 12 12 12 12 11 11 10 9 10 10 11 12 14 15 17 14 11 11 nan
nan 11 10 11 10 10 9 9 9 9 10 9 9 9 10 11 11 10 9 10 10 10 10 9 8 7 8 9 10 10 10 11 10 10 11 14 16 14 11 9 9 9 10 11 10 9 9 9 11 12 12 12 11 10 8 8 8 9 11 11 10 9 7 6 8 8 9 10 11 11 12 12 11 10 9 9 9 10 11 12 12 12 12 13 13 nan
nan 10 9 9 10 10 9 8 8 8 9 9 9 10 11 12 11 12 10 10 10 11 11 9 8 7 8 9 9 9 10 9 9 9 9 10 12 14 13 11 10 10 10 10 10 10 9 9 10 9 9 9 10 12 11 9 9 9 10 11 11 10 10 11 11 11 10 9 10 11 12 12 11 10 9 9 9 9 10 12 12 11 10 10 11 nan
nan 10 9 9 9 9 10 10 9 8 8 8 9 10 11 11 10 10 10 11 11 11 12 10 9 9 9 9 9 9 9 9 9 10 10 9 9 11 12 12 13 12 11 10 10 10 10 10 8 6 5 6 8 11 13 13 11 10 10 11 11 10 10 11 12 13 11 10 10 10 11 10 10 10 10 10 10 10 11 11 12 11 11 10 10 nan
nan 10 10 9 9 9 9 10 9 8 8 8 10 11 13 12 9 6 8 11 11 10 10 9 8 8 9 10 10 9 8 9 10 10 10 10 9 9 10 12 13 14 13 12 12 12 12 11 8 5 3 4 5 7 10 12 12 11 11 10 11 10 10 10 11 12 12 11 11 11 10 9 9 9 9 9 10 10 11 11 11 11 12 11 10 nan
nan 11 11 10 10 9 9 9 9 9 8 7 9 11 14 15 12 6 7 10 10 9 9 8 8 8 9 10 10 10 9 10 10 11 11 10 10 10 10 11 12 12 12 13 14 15 17 17 14 9 5 3 2 3 7 9 11 11 11 10 11 10 10 10 10 11 11 11 12 11 10 10 11 11 10 9 8 9 9 10 11 11 12 12 11 nan
nan 11 11 10 10 9 10 10 10 9 9 8 8 9 12 13 12 10 10 10 10 10 9 9 8 8 8 9 10 10 10 10 10 10 11 11 11 10 10 11 11 12 12 12 12 12 16 19 21 22 18 9 3 1 5 9 10 11 11 11 11 11 11 11 11 11 11 11 12 12 11 10 11 12 11 10 9 9 9 10 11 12 12 13 12 nan
nan nan nan nan nan nan nan nan nan nan nan nan nan nan nan nan nan nan nan nan nan nan nan nan nan nan nan nan nan nan nan nan nan nan nan nan nan nan nan nan nan nan nan nan nan nan nan nan nan nan nan nan nan nan nan nan nan nan nan nan nan nan nan nan nan nan nan nan nan nan nan nan nan nan nan nan nan nan nan nan nan nan nan nan nan nan
CAPE
nan nan nan nan nan nan nan nan nan nan nan nan nan nan nan nan nan nan nan nan nan nan nan nan nan nan nan 0 0 0 1 4 15 15 8 4 2 2 1 0 0 0 nan nan nan nan nan 0 0 1 nan 0 2 2 5 11 11 19 29 32 32 37 39 39 39 35 22 12 10 10 10 9 7 7 6 5 4 4 3 1 1 nan nan nan nan 0
nan nan nan nan nan nan nan nan nan nan nan nan nan nan nan nan nan nan nan nan nan nan nan nan nan nan nan nan nan nan 0 1 7 7 12 7 4 4 2 1 1 0 nan nan nan nan nan nan nan nan nan nan nan nan 0 3 3 6 12 24 24 38 43 43 43 36 23 12 7 7 6 6 4 4 4 4 3 3 2 1 1 nan nan 0 0 0
nan nan nan nan nan nan nan nan nan nan nan nan nan nan nan nan nan nan nan nan nan nan nan nan nan nan nan nan 0 0 0 1 1 1 8 9 4 4 0 0 0 0 0 0 0 nan nan nan nan nan nan nan nan nan nan nan nan 0 2 10 10 26 27 25 25 23 13 6 4 4 4 4 3 3 4 4 4 4 2 0 0 nan nan nan nan 0
nan nan nan nan nan nan nan nan nan nan nan nan nan nan nan nan 0 0 nan nan nan nan nan nan nan nan nan nan 0 0 0 0 3 3 4 6 3 3 nan nan nan nan nan nan nan nan nan 0 0 nan nan nan nan nan nan 0 0 nan nan 0 0 5 3 2 2 3 2 2 1 1 1 2 3 3 4 5 3 3 1 nan nan nan nan nan nan 0
nan nan nan nan nan nan nan nan 0 0 nan nan nan nan nan nan nan nan nan nan nan nan nan nan nan nan nan nan 0 0 0 0 1 1 2 3 4 4 1 0 0 nan nan nan nan nan nan nan nan nan nan nan nan nan nan nan nan nan nan nan nan nan nan nan nan 0 0 0 0 0 1 2 4 4 4 4 2 2 0 nan nan nan nan nan nan 0
nan nan nan nan nan nan nan nan 0 0 nan nan nan nan nan nan nan nan nan nan nan nan nan nan nan nan nan nan 1 1 0 0 0 0 1 3 6 6 4 1 1 0 nan nan nan nan nan nan nan nan nan nan nan nan 0 nan nan nan nan nan nan nan nan nan nan nan 0 0 0 0 0 1 1 1 2 1 0 0 nan nan nan nan nan nan nan 0
nan nan nan nan nan nan nan nan 0 0 nan nan nan nan nan nan nan nan nan 0 0 0 nan nan nan nan nan nan 0 0 1 0 0 0 nan 1 3 3 7 2 2 0 nan 0 0 nan nan nan nan nan nan nan nan nan nan nan nan nan nan nan nan nan nan nan nan nan nan 0 0 0 0 nan nan nan nan nan nan nan nan nan nan nan nan nan nan nan
nan nan nan nan nan nan nan nan nan nan nan nan nan nan nan nan nan nan nan nan nan nan nan nan nan nan nan nan nan nan nan 0 0 0 nan 0 6 6 4 2 2 1 nan nan nan nan 0 0 0 nan nan nan nan nan nan nan nan nan nan nan nan nan nan nan nan nan nan nan nan nan nan nan nan nan nan nan nan nan nan nan nan nan nan nan nan nan
nan nan nan nan nan nan nan nan nan nan nan nan nan nan nan nan nan nan nan nan nan nan nan nan nan nan nan nan nan nan 0 0 0 0 nan nan nan nan 1 3 3 2 0 nan nan 0 1 1 1 0 nan nan nan nan nan nan nan nan nan nan nan nan nan nan nan nan nan nan nan nan nan nan nan nan nan nan nan nan nan nan nan nan nan nan nan nan
nan nan nan nan nan nan nan nan nan nan nan nan nan nan nan nan nan nan nan nan nan nan nan nan nan nan nan nan nan nan nan nan 0 0 1 nan 0 0 nan nan nan 0 1 2 2 1 2 2 2 1 nan nan nan nan nan nan nan nan nan 0 0 nan nan nan nan nan nan nan nan nan nan nan nan nan nan nan nan nan nan nan nan nan nan nan nan nan
nan nan nan nan nan nan nan nan nan nan nan nan nan nan nan nan nan nan nan nan nan nan nan nan nan nan nan nan nan nan nan nan nan nan 1 nan nan nan nan nan nan nan 1 2 2 3 2 2 2 1 nan nan nan nan nan nan nan nan nan nan nan 0 0 nan nan nan nan nan nan nan nan nan nan nan nan nan nan nan nan nan nan nan nan nan nan nan
nan nan nan nan nan nan nan nan nan nan nan nan nan nan nan nan nan nan nan nan nan nan nan nan nan nan nan nan nan nan nan nan nan nan nan 0 0 0 nan nan nan nan nan 4 4 3 4 2 2 nan nan nan nan nan nan nan nan nan nan nan nan nan nan nan nan nan nan nan nan nan nan nan nan nan nan nan nan nan nan nan nan nan nan nan nan nan
nan nan nan nan nan nan nan nan nan nan nan nan nan nan nan nan nan nan nan nan nan nan nan nan nan nan nan nan nan nan nan nan nan nan nan nan nan nan nan nan nan nan nan nan nan nan 6 2 2 nan nan nan nan nan nan nan nan nan nan nan nan nan nan nan nan nan nan nan nan nan nan nan nan nan nan nan nan nan nan nan nan nan nan nan nan nan
nan nan nan nan nan nan nan nan nan nan nan nan nan nan nan nan nan nan nan nan nan nan nan nan nan nan nan nan nan nan nan nan nan nan nan nan nan nan nan nan nan nan nan nan nan nan 0 nan nan nan 0 nan nan nan nan nan nan nan nan nan nan nan nan nan nan nan nan nan nan nan nan nan nan nan nan nan nan nan nan nan nan nan nan nan nan nan
nan nan nan nan nan nan nan nan nan nan nan nan nan nan nan nan nan nan nan nan nan nan nan nan nan nan nan nan nan nan nan nan nan nan nan nan nan nan nan nan nan nan nan nan nan nan nan nan nan nan nan nan nan nan nan nan nan nan nan nan nan nan nan nan nan nan nan nan nan nan nan nan nan nan nan nan nan nan nan nan nan nan nan nan nan nan
nan nan nan nan nan nan nan nan nan nan nan nan nan nan nan nan nan nan nan nan nan nan nan nan nan nan nan nan nan nan nan nan nan nan nan nan nan nan nan nan nan nan nan nan nan nan nan nan nan nan nan nan nan nan nan nan nan nan nan nan nan nan nan nan nan nan nan nan nan nan nan nan nan nan nan nan nan nan nan nan nan nan nan nan nan nan
nan nan nan nan nan nan nan nan nan nan nan nan nan nan nan nan nan nan nan nan nan nan nan nan nan nan nan nan nan nan nan nan nan nan nan nan nan nan nan nan nan nan nan nan nan nan nan nan nan nan nan 0 0 0 nan 0 0 nan nan nan nan nan nan nan nan nan nan nan nan nan nan nan nan nan nan nan nan nan nan nan nan nan nan nan nan nan
nan nan nan nan nan nan nan nan nan nan nan nan nan nan nan nan nan nan nan nan nan nan nan nan nan nan nan nan nan nan nan nan nan nan nan nan nan nan nan nan nan nan nan nan nan nan nan nan nan nan nan 3 2 2 1 3 3 3 2 0 0 0 nan nan nan nan nan nan nan nan nan nan nan nan nan nan nan nan nan nan nan nan nan nan nan nan
nan nan nan nan nan nan nan nan nan nan nan nan nan nan nan nan nan nan nan nan nan nan nan nan nan nan nan nan nan nan nan nan nan nan nan nan nan nan nan nan nan nan nan nan nan nan nan nan nan nan nan 1 7 7 6 6 6 8 7 4 4 2 0 0 0 nan nan nan nan nan nan nan nan nan nan nan nan nan nan nan nan nan nan nan nan nan
nan nan nan nan nan nan nan nan nan nan nan nan nan nan nan nan nan nan nan nan nan nan nan nan nan nan nan nan nan nan nan nan nan nan nan nan nan nan nan nan nan nan nan nan nan nan nan nan nan nan nan nan 3 3 10 10 10 12 12 9 9 5 2 1 1 nan nan nan nan nan nan nan nan nan nan nan nan nan nan nan nan nan nan nan nan nan
nan nan nan nan nan nan nan nan nan nan nan nan nan nan nan nan nan nan nan nan nan nan nan nan nan nan nan nan nan nan nan nan nan nan nan nan nan nan nan nan nan nan nan nan nan nan nan nan nan nan nan nan nan nan 6 11 11 14 13 12 12 9 4 2 2 0 0 nan nan nan nan nan nan nan nan nan nan nan nan nan nan nan nan nan nan nan
nan nan nan nan nan nan nan nan nan nan nan nan nan nan nan nan nan nan nan nan nan nan nan nan nan nan nan nan nan nan nan nan nan nan nan nan nan nan nan nan nan nan nan nan nan nan nan nan nan nan nan nan nan nan 0 6 6 13 14 13 13 12 9 5 5 3 2 1 0 0 nan nan nan nan nan nan nan nan nan nan nan nan nan nan nan nan
nan nan nan nan nan nan nan nan nan nan nan nan nan nan nan nan nan nan nan nan nan nan nan nan nan nan nan nan nan nan nan nan nan nan nan nan nan nan nan nan nan nan nan nan nan nan nan nan nan nan nan nan nan nan nan 2 2 9 13 14 14 14 13 9 9 7 4 3 1 1 0 nan nan nan nan nan nan nan nan nan nan nan nan nan nan nan
nan nan nan nan nan nan nan nan nan nan nan nan nan nan nan nan nan nan nan nan nan nan nan nan nan nan nan nan nan nan nan nan nan nan nan nan nan nan nan nan nan nan nan nan nan nan nan nan nan nan nan nan nan nan nan nan nan 4 11 15 15 15 14 12 12 10 7 4 2 2 1 0 nan nan nan nan nan nan nan nan nan nan nan nan nan nan
nan nan nan nan nan nan nan nan nan nan nan nan nan nan nan nan nan nan nan nan nan nan nan nan nan nan nan nan nan nan nan nan nan nan nan nan nan nan nan nan nan nan nan nan nan nan nan nan nan nan nan nan nan nan nan nan nan 0 5 12 12 13 15 13 13 12 10 7 4 4 2 1 nan nan nan nan nan nan nan nan nan nan nan nan nan nan
nan nan nan nan nan nan nan 0 1 1 nan nan nan nan nan nan nan nan nan nan nan nan nan nan nan nan nan nan nan nan nan nan nan nan nan nan nan nan nan nan nan nan nan nan nan nan nan nan nan nan nan nan nan nan nan nan nan nan 1 8 8 13 14 16 16 13 11 8 4 4 3 2 0 0 nan nan nan nan nan nan nan nan nan 0 0 nan
nan nan 0 1 1 1 1 1 3 3 5 nan nan nan nan nan nan nan nan nan nan nan nan nan nan nan nan nan nan nan nan nan nan nan nan nan nan nan nan nan nan nan nan nan nan nan nan nan nan nan nan nan nan nan nan nan nan nan 0 5 5 12 12 15 15 14 12 10 7 7 4 2 1 1 0 nan nan nan nan nan nan nan 0 1 1 nan
nan 0 0 0 0 1 1 1 2 2 4 2 4 4 nan nan nan nan nan nan nan nan nan nan nan nan nan nan nan nan nan nan nan nan nan nan nan nan nan nan nan nan nan nan nan nan nan nan nan nan nan nan nan nan nan nan nan nan 1 4 4 10 13 14 14 13 12 10 8 8 5 4 2 2 1 0 0 0 nan nan nan nan 0 nan nan nan
0 0 0 1 1 1 1 1 1 1 2 2 1 1 nan nan nan nan nan nan nan nan nan nan nan nan nan nan nan nan nan nan nan nan nan nan nan nan nan nan nan nan nan nan nan nan nan nan nan nan nan nan nan nan nan nan nan nan nan 2 2 7 10 11 11 13 12 10 10 10 7 4 3 3 2 1 1 1 1 0 0 0 nan nan nan nan
nan nan nan nan nan nan nan nan nan nan 0 0 nan nan nan nan nan nan nan nan nan nan nan nan nan nan nan nan nan nan nan nan nan nan nan nan nan nan nan nan nan nan nan nan nan nan nan nan nan nan nan nan nan nan nan nan nan nan nan nan nan nan 1 6 6 8 11 12 10 10 8 5 4 4 3 3 3 3 1 1 1 nan nan nan nan nan
nan nan nan nan nan nan nan nan nan nan nan nan nan nan nan nan nan nan nan nan nan nan nan nan nan nan nan nan nan nan nan nan nan nan nan nan nan nan nan nan nan nan nan nan nan nan nan nan nan nan nan nan nan nan nan nan nan nan nan nan nan nan nan nan nan nan 4 8 9 9 8 6 5 5 5 4 4 4 3 2 2 nan nan nan nan nan
nan nan nan nan nan nan nan nan nan nan nan nan nan nan nan nan nan nan nan nan nan nan nan nan nan nan nan nan nan nan nan nan nan nan nan nan nan nan nan nan nan nan nan nan nan nan nan nan nan nan nan nan nan nan nan nan nan nan nan nan nan nan nan nan nan nan nan nan nan nan 1 4 7 7 8 10 11 11 8 6 6 3 nan nan nan nan
nan nan nan nan nan nan nan nan nan nan nan nan nan nan nan nan nan nan nan nan nan nan nan nan nan nan nan nan nan nan nan nan nan nan nan nan nan nan nan nan nan nan nan nan nan nan nan nan nan nan nan nan nan nan nan nan nan nan nan nan nan nan nan nan nan nan nan nan nan nan nan 2 4 4 9 12 11 11 10 9 9 5 0 nan nan nan
nan nan nan nan nan nan nan nan nan nan nan nan nan nan nan nan nan nan nan nan nan nan nan nan nan nan nan nan nan nan nan nan nan nan nan nan nan nan nan nan nan nan nan nan nan nan nan nan nan nan nan nan nan nan nan nan nan nan nan nan nan nan nan nan nan nan nan nan nan nan nan nan nan nan nan 6 8 8 9 9 9 5 8 nan nan nan
nan nan nan nan nan nan nan nan nan nan nan nan nan nan nan nan nan nan nan nan nan nan nan nan nan nan nan nan nan nan nan nan nan nan nan nan nan nan nan nan nan nan nan nan nan nan nan nan nan nan nan nan nan nan nan nan nan nan nan nan nan nan nan nan nan nan nan nan nan nan nan nan nan nan nan nan 2 2 8 7 7 5 6 7 7 nan
nan nan nan nan nan nan nan nan nan nan nan nan nan nan nan nan nan nan nan nan nan nan nan nan nan nan nan nan nan nan nan nan nan nan nan nan nan nan nan nan nan nan nan nan nan nan nan nan nan nan nan nan nan nan nan nan nan nan nan nan nan nan nan nan nan nan nan nan nan nan nan nan nan nan nan nan nan nan 2 5 5 4 4 9 9 4
nan nan nan nan nan nan nan nan nan nan nan nan nan nan nan nan nan nan nan nan nan nan nan nan nan nan nan nan nan nan nan nan nan nan nan nan nan nan nan nan nan nan nan nan nan nan nan nan nan nan nan nan nan nan nan nan nan nan nan nan nan nan nan nan nan nan nan nan nan nan nan nan nan nan nan nan nan nan nan 3 3 3 4 12 12 11
nan nan nan nan nan nan nan nan nan nan nan nan nan nan nan nan nan nan nan nan nan nan nan nan nan nan nan nan nan nan nan nan nan nan nan nan nan nan nan nan nan nan nan nan nan nan nan nan nan nan nan nan nan nan nan nan nan nan nan nan nan nan nan nan nan nan nan nan nan nan nan nan nan nan nan nan nan nan nan nan nan nan 3 8 8 18
nan nan nan nan nan nan nan nan nan nan nan nan nan nan nan nan nan nan nan nan nan nan nan nan nan nan nan nan nan nan nan nan nan nan nan nan nan nan nan nan nan nan nan nan nan nan nan nan nan nan nan nan nan nan nan nan nan nan nan nan nan nan nan nan nan nan nan nan nan nan nan nan nan nan nan nan nan nan nan nan nan nan nan nan nan 9
nan nan nan nan nan nan nan nan nan nan nan nan nan nan nan nan nan nan nan nan nan nan nan nan nan nan nan nan nan nan nan nan nan nan nan nan nan nan nan nan nan nan nan nan nan nan nan nan nan nan nan nan nan nan nan nan nan nan nan nan nan nan nan nan nan nan nan nan nan nan nan nan nan nan nan nan nan nan nan nan nan nan nan nan nan nan
nan nan nan nan nan nan nan nan nan nan nan nan nan nan nan nan nan nan nan nan nan nan nan nan nan nan nan nan nan nan nan nan nan nan nan nan nan nan nan nan nan nan nan nan nan nan nan nan nan nan nan nan nan nan nan nan nan nan nan nan nan nan nan nan nan nan nan nan nan nan nan nan nan nan nan nan nan nan nan nan nan nan nan nan nan nan
nan nan nan nan nan nan nan nan nan nan nan nan nan nan nan nan nan nan nan nan nan nan nan nan nan nan nan nan nan nan nan nan nan nan nan nan nan nan nan nan nan nan nan nan nan nan nan nan nan nan nan nan nan nan nan nan nan nan nan nan nan nan nan nan nan nan nan nan nan nan nan nan nan nan nan nan nan nan nan nan nan nan nan nan nan nan
nan nan nan nan nan nan nan nan nan nan nan nan nan nan nan nan nan nan nan nan nan nan nan nan nan nan nan nan nan nan nan nan nan nan nan nan nan nan nan nan nan nan nan nan nan nan nan nan nan nan nan nan nan nan nan nan nan nan nan nan nan nan nan nan nan nan nan nan nan nan nan nan nan nan nan nan nan nan nan nan nan nan nan nan nan nan
nan nan nan nan nan nan nan nan nan nan nan nan nan nan nan nan nan nan nan nan nan nan nan nan nan nan nan nan nan nan nan nan nan nan nan nan nan nan nan nan nan nan nan nan nan nan nan nan nan nan nan nan nan nan nan nan nan nan nan nan nan nan nan nan nan nan nan nan nan nan nan nan nan nan nan nan nan nan nan nan nan nan nan nan nan nan
nan nan nan nan nan nan nan nan nan nan nan nan nan nan nan nan nan nan nan nan nan nan nan nan nan nan nan nan nan nan nan nan nan nan nan nan nan nan nan nan nan nan nan nan nan nan nan nan nan nan nan nan nan nan nan nan nan nan nan nan nan nan nan nan nan nan nan nan nan nan nan nan nan nan nan nan nan nan nan nan nan nan nan nan nan nan
nan nan nan nan nan nan nan nan nan nan nan nan nan nan nan nan nan nan nan nan nan nan nan nan nan nan nan nan nan nan nan nan nan nan nan nan nan nan nan nan nan nan nan nan nan nan nan nan nan nan nan nan nan nan nan nan nan nan nan nan nan nan nan nan nan nan nan nan nan nan nan nan nan nan nan nan nan nan nan nan nan nan nan nan nan nan
nan nan nan nan nan nan nan nan nan nan nan nan nan nan nan nan nan nan nan nan nan nan nan nan nan nan nan nan nan nan nan nan nan nan nan nan nan nan nan nan nan nan nan nan nan nan nan nan nan nan nan nan nan nan nan nan nan nan nan nan nan nan nan nan nan nan nan nan nan nan nan nan nan nan nan nan nan nan nan nan nan nan nan nan nan nan
nan nan nan nan nan nan nan nan nan nan nan nan nan nan nan nan nan nan nan nan nan nan nan nan nan nan nan nan nan nan nan nan nan nan nan nan nan nan nan nan nan nan nan nan nan nan nan nan nan nan nan nan nan nan nan nan nan nan nan nan nan nan nan nan nan nan nan nan nan nan nan nan nan nan nan nan nan nan nan nan nan nan nan nan nan nan
nan nan nan nan nan nan nan nan nan nan nan nan nan nan nan nan nan nan nan nan nan nan nan nan nan nan nan nan nan nan nan nan nan nan nan nan nan nan nan nan nan nan nan nan nan nan nan nan nan nan nan nan nan nan nan nan nan nan nan nan nan nan nan nan nan nan nan nan nan nan nan nan nan nan nan nan nan nan nan nan nan nan nan nan nan nan
nan nan nan nan nan nan nan nan nan nan nan nan nan nan nan nan nan nan nan nan nan nan nan nan nan nan nan nan nan nan nan nan nan nan nan nan nan nan nan nan nan nan nan nan nan nan nan nan nan nan nan nan nan nan nan nan nan nan nan nan nan nan nan nan nan nan nan nan nan nan nan nan nan nan nan nan nan nan nan nan nan nan nan nan nan nan
nan nan nan nan nan nan nan nan nan nan nan nan nan nan nan nan nan nan nan nan nan nan nan nan nan nan nan nan nan nan nan nan nan nan nan nan nan nan nan nan nan nan nan nan nan nan nan nan nan nan nan 0 nan nan nan nan nan nan nan nan nan nan nan nan nan nan nan nan nan nan nan nan nan nan nan nan nan nan nan nan nan nan nan nan nan nan